This is the latest recevied weather packets stored in our database for station/object SA7NOA-14. If no packets are shown the sender has not sent any weather packets the latest 10 day(s).
| Time | Temp. | Humidity | Pressure | Rain* | Wind** | Luminosity | Snow |
|---|---|---|---|---|---|---|---|
| 1788072305 | 15° C | 88% | 1006 hPa | 1.27 mm | - | - | - |
| 1788071404 | 15° C | 92% | 1006.3 hPa | 1.27 mm | - | - | - |
| 1788070503 | 14.44° C | 92% | 1006.3 hPa | 1.27 mm | - | - | - |
| 1788069602 | 14.44° C | 92% | 1006.3 hPa | 1.27 mm | - | - | - |
| 1788068701 | 15° C | 92% | 1006.3 hPa | 1.27 mm | - | - | - |
| 1788067805 | 14.44° C | 91% | 1006.5 hPa | 1.02 mm | - | - | - |
| 1788066903 | 14.44° C | 91% | 1006.5 hPa | 1.02 mm | - | - | - |
| 1788066003 | 14.44° C | 91% | 1006.5 hPa | 1.02 mm | - | - | - |
| 1788065102 | 14.44° C | 91% | 1006.5 hPa | 1.02 mm | - | - | - |
| 1788064200 | 14.44° C | 91% | 1006.5 hPa | 1.02 mm | - | - | - |
| 1788039003 | 16.11° C | 83% | 1007 hPa | 1.02 mm | - | - | - |
| 1788038102 | 16.11° C | 83% | 1007 hPa | 1.02 mm | - | - | - |
| 1788036305 | 16.67° C | 83% | 1007.1 hPa | 1.02 mm | - | - | - |
| 1788034503 | 16.67° C | 81% | 1006.9 hPa | 1.02 mm | - | - | - |
| 1788028201 | 16.67° C | 76% | 1006.4 hPa | 0.76 mm | - | - | - |
| 1788027305 | 16.67° C | 76% | 1006.4 hPa | 0.76 mm | - | - | - |
| 1788024602 | 16.67° C | 76% | 1006.2 hPa | 0.76 mm | - | - | - |
| 1788023700 | 17.22° C | 76% | 1006.2 hPa | 0.76 mm | - | - | - |
| 1788021003 | 16.67° C | 71% | 1006 hPa | 0.51 mm | - | - | - |
| 1788018300 | 18.89° C | 71% | 1006 hPa | 0.51 mm | - | - | - |
| 1788016503 | 19.44° C | 62% | 1005.7 hPa | 0.51 mm | - | - | - |
| 1788006602 | 22.22° C | 58% | 1005.6 hPa | - | - | - | - |
| 1788005702 | 23.33° C | 58% | 1005.6 hPa | - | - | - | - |
| 1788003905 | 24.44° C | 58% | 1005.6 hPa | - | - | - | - |
| 1788003004 | 27.22° C | 68% | 1005.9 hPa | - | - | - | - |
* Rain latest 24 hours (hover to see other rain measurements)
** Current wind speed in m/s (hover to see current wind gust speed)